Previsão horária em Alliance

Hoje, 25 Junho, Sexta-feira

Tempo Temperatura Precipitação Vento Pressão Humidade
00:00 +19°C° 0 mm 3 m/s 734 mmHg 77%
01:00 +18°C° 0 mm 3 m/s 734 mmHg 78%
02:00 +18°C° 0 mm 3 m/s 734 mmHg 75%
03:00 +18°C° 0 mm 4 m/s 734 mmHg 71%
04:00 +18°C° 0 mm 4 m/s 734 mmHg 68%
05:00 +18°C° 0 mm 4 m/s 735 mmHg 70%
06:00 +18°C° 0 mm 4 m/s 735 mmHg 71%
07:00 +17°C° 0 mm 5 m/s 735 mmHg 73%
08:00 +20°C° 0 mm 5 m/s 735 mmHg 70%
09:00 +22°C° 0 mm 5 m/s 735 mmHg 67%
10:00 +24°C° 0 mm 6 m/s 735 mmHg 63%
11:00 +24°C° 0 mm 6 m/s 734 mmHg 63%
12:00 +26°C° 0 mm 6 m/s 734 mmHg 63%
13:00 +27°C° 0 mm 6 m/s 734 mmHg 63%
14:00 +27°C° 0.1 mm 5 m/s 733 mmHg 66%
15:00 +26°C° 0.1 mm 5 m/s 733 mmHg 69%
16:00 +26°C° 0.1 mm 5 m/s 732 mmHg 72%
17:00 +25°C° 0.4 mm 4 m/s 732 mmHg 76%
18:00 +24°C° 0.4 mm 3 m/s 731 mmHg 81%
19:00 +22°C° 0.4 mm 3 m/s 731 mmHg 86%
20:00 +22°C° 0.4 mm 4 m/s 731 mmHg 83%
21:00 +22°C° 0.4 mm 4 m/s 731 mmHg 80%
22:00 +22°C° 0.4 mm 5 m/s 731 mmHg 77%
23:00 +22°C° 0 mm 5 m/s 731 mmHg 75%

Amanhã, 26 Junho, Sábado

Tempo Temperatura Precipitação Vento Pressão Humidade
00:00 +22°C° 0 mm 5 m/s 731 mmHg 73%
01:00 +22°C° 0 mm 4 m/s 731 mmHg 71%
02:00 +22°C° 0.1 mm 5 m/s 731 mmHg 72%
03:00 +21°C° 0.1 mm 5 m/s 731 mmHg 72%
04:00 +21°C° 0.1 mm 5 m/s 731 mmHg 72%
05:00 +20°C° 1.5 mm 5 m/s 732 mmHg 81%
06:00 +20°C° 1.5 mm 4 m/s 732 mmHg 89%
07:00 +19°C° 1.5 mm 4 m/s 733 mmHg 97%
08:00 +20°C° 0.4 mm 5 m/s 733 mmHg 93%
09:00 +21°C° 0.4 mm 5 m/s 733 mmHg 90%
10:00 +22°C° 0.4 mm 5 m/s 733 mmHg 86%
11:00 +24°C° 0.3 mm 6 m/s 732 mmHg 81%
12:00 +27°C° 0.3 mm 6 m/s 732 mmHg 76%
13:00 +29°C° 0.3 mm 7 m/s 732 mmHg 72%
14:00 +29°C° 0.2 mm 6 m/s 732 mmHg 71%
15:00 +30°C° 0.2 mm 6 m/s 732 mmHg 70%
16:00 +30°C° 0.2 mm 6 m/s 732 mmHg 69%
17:00 +29°C° 0.1 mm 5 m/s 732 mmHg 73%
18:00 +28°C° 0.1 mm 4 m/s 732 mmHg 77%
19:00 +27°C° 0.1 mm 4 m/s 732 mmHg 80%
20:00 +26°C° 0 mm 3 m/s 732 mmHg 82%
21:00 +24°C° 0 mm 3 m/s 732 mmHg 85%
22:00 +22°C° 0 mm 3 m/s 732 mmHg 87%
23:00 +22°C° 0 mm 3 m/s 732 mmHg 86%

Depois de amanhã, 27 Junho, Domingo

Tempo Temperatura Precipitação Vento Pressão Humidade
00:00 +22°C° 0 mm 3 m/s 732 mmHg 85%
01:00 +21°C° 0 mm 3 m/s 732 mmHg 85%
02:00 +21°C° 0 mm 3 m/s 732 mmHg 87%
03:00 +20°C° 0 mm 3 m/s 733 mmHg 90%
04:00 +20°C° 0 mm 3 m/s 733 mmHg 92%
05:00 +20°C° 0 mm 3 m/s 733 mmHg 90%
06:00 +21°C° 0 mm 4 m/s 733 mmHg 87%
07:00 +22°C° 0 mm 4 m/s 734 mmHg 85%
08:00 +23°C° 0 mm 4 m/s 734 mmHg 80%
09:00 +26°C° 0 mm 5 m/s 734 mmHg 74%
10:00 +28°C° 0 mm 5 m/s 734 mmHg 69%
11:00 +29°C° 0.1 mm 5 m/s 734 mmHg 66%
12:00 +30°C° 0.1 mm 5 m/s 734 mmHg 63%
13:00 +32°C° 0.1 mm 5 m/s 734 mmHg 59%
14:00 +32°C° 0.1 mm 5 m/s 734 mmHg 61%
15:00 +32°C° 0.1 mm 5 m/s 734 mmHg 62%
16:00 +32°C° 0.1 mm 5 m/s 733 mmHg 64%
17:00 +30°C° 0.1 mm 4 m/s 733 mmHg 70%
18:00 +28°C° 0.1 mm 3 m/s 734 mmHg 75%
19:00 +27°C° 0.1 mm 3 m/s 734 mmHg 80%
20:00 +26°C° 0 mm 3 m/s 734 mmHg 83%
21:00 +25°C° 0 mm 3 m/s 734 mmHg 85%
22:00 +24°C° 0 mm 3 m/s 734 mmHg 88%
23:00 +22°C° 0 mm 3 m/s 734 mmHg 89%

28 Junho, Segunda-feira

Tempo Temperatura Precipitação Vento Pressão Humidade
00:00 +22°C° 0 mm 3 m/s 734 mmHg 90%
01:00 +22°C° 0 mm 3 m/s 734 mmHg 91%
02:00 +21°C° 0 mm 2 m/s 735 mmHg 93%
03:00 +21°C° 0 mm 2 m/s 735 mmHg 94%
04:00 +21°C° 0 mm 2 m/s 735 mmHg 95%
05:00 +22°C° 0 mm 3 m/s 735 mmHg 93%
06:00 +22°C° 0 mm 3 m/s 736 mmHg 90%
07:00 +24°C° 0 mm 3 m/s 736 mmHg 88%
08:00 +26°C° 0.2 mm 3 m/s 736 mmHg 83%
09:00 +27°C° 0.2 mm 3 m/s 737 mmHg 79%
10:00 +29°C° 0.2 mm 4 m/s 737 mmHg 75%
11:00 +29°C° 0.2 mm 4 m/s 737 mmHg 71%
12:00 +30°C° 0.2 mm 4 m/s 737 mmHg 68%
13:00 +30°C° 0.2 mm 4 m/s 737 mmHg 65%
14:00 +30°C° 0.3 mm 4 m/s 736 mmHg 67%
15:00 +30°C° 0.3 mm 4 m/s 736 mmHg 68%
16:00 +30°C° 0.3 mm 3 m/s 736 mmHg 70%
17:00 +29°C° 0.2 mm 3 m/s 736 mmHg 76%
18:00 +28°C° 0.2 mm 2 m/s 736 mmHg 83%
19:00 +27°C° 0.2 mm 2 m/s 736 mmHg 89%
20:00 +25°C° 0.2 mm 1 m/s 736 mmHg 91%
21:00 +24°C° 0.2 mm 1 m/s 736 mmHg 93%
22:00 +23°C° 0.2 mm 1 m/s 737 mmHg 95%
23:00 +23°C° 0.2 mm 1 m/s 737 mmHg 95%

29 Junho, Terça-feira

Tempo Temperatura Precipitação Vento Pressão Humidade
00:00 +23°C° 0.2 mm 1 m/s 737 mmHg 96%
01:00 +22°C° 0.2 mm 1 m/s 737 mmHg 96%
02:00 +22°C° 0 mm 1 m/s 737 mmHg 96%
03:00 +22°C° 0 mm 1 m/s 737 mmHg 96%
04:00 +21°C° 0 mm 1 m/s 737 mmHg 96%
05:00 +22°C° 0 mm 1 m/s 737 mmHg 95%
06:00 +23°C° 0 mm 1 m/s 737 mmHg 94%
07:00 +24°C° 0 mm 1 m/s 737 mmHg 93%
08:00 +26°C° 0 mm 1 m/s 737 mmHg 87%
09:00 +25°C° 0 mm 0 m/s 738 mmHg 81%
10:00 +27°C° 0 mm 0 m/s 738 mmHg 75%
11:00 +28°C° 0.5 mm 0 m/s 737 mmHg 71%
12:00 +30°C° 0.5 mm 1 m/s 737 mmHg 68%
13:00 +31°C° 0.5 mm 1 m/s 737 mmHg 65%
14:00 +30°C° 0.4 mm 1 m/s 736 mmHg 70%
15:00 +29°C° 0.4 mm 1 m/s 736 mmHg 75%
16:00 +27°C° 0.4 mm 1 m/s 736 mmHg 80%
17:00 +27°C° 0.6 mm 1 m/s 736 mmHg 82%
18:00 +26°C° 0.6 mm 1 m/s 736 mmHg 85%
19:00 +26°C° 0.6 mm 1 m/s 736 mmHg 87%
20:00 +25°C° 0.4 mm 1 m/s 736 mmHg 89%
21:00 +24°C° 0.4 mm 1 m/s 736 mmHg 91%
22:00 +23°C° 0.4 mm 2 m/s 736 mmHg 93%
23:00 +23°C° 0.5 mm 2 m/s 736 mmHg 95%

30 Junho, Quarta-feira

Tempo Temperatura Precipitação Vento Pressão Humidade
00:00 +23°C° 0.5 mm 2 m/s 735 mmHg 96%
01:00 +21°C° 0.5 mm 2 m/s 735 mmHg 97%
02:00 +21°C° 0.1 mm 2 m/s 735 mmHg 96%
03:00 +21°C° 0.1 mm 2 m/s 735 mmHg 96%
04:00 +21°C° 0.1 mm 2 m/s 734 mmHg 96%
05:00 +23°C° 0 mm 2 m/s 734 mmHg 95%
06:00 +23°C° 0 mm 2 m/s 734 mmHg 95%
07:00 +23°C° 0 mm 2 m/s 734 mmHg 95%
08:00 +24°C° 0 mm 3 m/s 734 mmHg 92%
09:00 +24°C° 0 mm 3 m/s 734 mmHg 89%
10:00 +25°C° 0 mm 3 m/s 734 mmHg 87%
11:00 +26°C° 0 mm 3 m/s 734 mmHg 83%
12:00 +27°C° 0 mm 3 m/s 734 mmHg 79%
13:00 +28°C° 0 mm 3 m/s 734 mmHg 76%
14:00 +28°C° 0.6 mm 3 m/s 733 mmHg 76%
15:00 +28°C° 0.6 mm 3 m/s 733 mmHg 77%
16:00 +29°C° 0.6 mm 3 m/s 733 mmHg 78%
17:00 +28°C° 0.7 mm 3 m/s 732 mmHg 82%
18:00 +27°C° 0.7 mm 2 m/s 732 mmHg 86%
19:00 +26°C° 0.7 mm 2 m/s 732 mmHg 89%
20:00 +25°C° 0 mm 2 m/s 732 mmHg 90%
21:00 +24°C° 0 mm 2 m/s 732 mmHg 91%
22:00 +24°C° 0 mm 2 m/s 732 mmHg 92%
23:00 +23°C° 0 mm 2 m/s 731 mmHg 93%
Mostrar mais